Location: Poughquag
(41.6090°N, 73.6820°W)
Time: 01:54:54
(UTC-05:00)

Tiros 1 despin weight - Visible Passes

Search period start: 07 December 2023 00:00
Search period end: 17 December 2023 00:00
Orbit: 583 x 627 km, 48.2° (Epoch: 05 December)

Date Brightness Start Highest point End Pass type
(mag) Time Alt. Az. Time Alt. Az. Time Alt. Az.
07 Dec ? 17:36:28 10° WSW 17:40:50 67° NNW 17:43:29 23° NE visible
07 Dec ? 19:18:34 10° WNW 19:20:16 20° NW 19:20:16 20° NW visible
08 Dec ? 17:48:58 10° W 17:53:11 47° NNW 17:55:13 27° NE visible
08 Dec ? 19:31:05 10° WNW 19:32:00 15° WNW 19:32:00 15° WNW visible
09 Dec ? 18:01:32 10° W 18:05:37 38° N 18:06:57 30° NNE visible
09 Dec ? 19:43:29 10° WNW 19:43:44 11° WNW 19:43:44 11° WNW visible
10 Dec ? 18:14:06 10° WNW 18:18:06 34° N 18:18:39 33° NNE visible
11 Dec ? 18:26:35 10° WNW 18:30:22 34° N 18:30:22 34° N visible
12 Dec ? 16:57:01 10° WNW 17:01:07 37° N 17:05:11 10° ENE visible
12 Dec ? 18:38:56 10° WNW 18:42:06 34° NNW 18:42:06 34° NNW visible
13 Dec ? 17:09:33 10° WNW 17:13:34 34° N 17:17:05 13° ENE visible
13 Dec ? 18:51:12 10° WNW 18:53:52 32° NW 18:53:52 32° NW visible
14 Dec ? 17:22:00 10° WNW 17:26:02 34° N 17:28:53 17° ENE visible
14 Dec ? 19:03:24 10° WNW 19:05:41 30° NW 19:05:41 30° NW visible
15 Dec ? 17:34:20 10° WNW 17:38:27 39° NNE 17:40:46 22° ENE visible
15 Dec ? 19:15:36 10° WNW 19:17:34 26° WNW 19:17:34 26° WNW visible
16 Dec ? 17:46:33 10° WNW 17:50:49 50° NNE 17:52:45 28° ENE visible
16 Dec ? 19:27:54 10° WNW 19:29:33 21° W 19:29:33 21° W visible
